Skip Page Navigation
NASA JPL Caltech
NASA Logo - Jet Propulsion Laboratory + View the NASA Portal
+ Center for Near-Earth Object Studies
JPL Home Earth Solar System Stars & Galaxies Technology
JPL Solar System Dynamics
BODIES ORBITS EPHEMERIDES TOOLS PHYSICAL DATA DISCOVERY FAQ SITE MAP
JPL Small-Body Database Browser
Search: [ help ]  
67254 (2000 EV108)
Classification: Main-belt Asteroid          SPK-ID: 2067254
Ephemeris | Orbit Diagram | Orbital Elements | Mission Design | Physical Parameters | Discovery Circumstances | Close-Approach Data ]

[ show orbit diagram ]
Orbital Elements at Epoch 2459396.5 (2021-Jul-01.0) TDB
Reference: JPL 32 (heliocentric ecliptic J2000)
 Element Value Uncertainty (1-sigma)   Units 
e .2621156472016127 3.0953e-08  
a 2.980159341059021 1.2805e-08 au
q 2.199012946613404 9.0971e-08 au
i 1.715463193021686 5.1483e-06 deg
node 334.1907394945414 0.00011712 deg
peri 87.20799137873257 0.00011764 deg
M 138.0228133391996 1.0786e-05 deg
tp 2458676.046377409184
(2019-Jul-11.54637741)
5.38e-05 TDB
period 1879.133585657991
5.14
1.2111e-05
3.316e-08
d
yr
n .1915776519283187 1.2347e-09 deg/d
Q 3.761305735504638 1.6161e-08 au
  Orbit Determination Parameters
   # obs. used (total)      1356  
   data-arc span      11808 days (32.33 yr)  
   first obs. used      1989-01-11  
   last obs. used      2021-05-11  
   planetary ephem.      DE441  
   SB-pert. ephem.      SB441-N16  
   condition code      0  
   norm. resid. RMS      .51477  
   source      ORB  
   producer      Otto Matic  
   solution date      2021-Jul-08 22:35:04  

Additional Information
 Earth MOID = 1.2124 au 
 Jupiter MOID = 1.6007 au 
 T_jup = 3.206 
[ hide covariance matrix ]
Orbital Elements at Epoch 2457234.5 (2015-Jul-31.0) TDB
Reference: JPL 32 (heliocentric ecliptic J2000)
 Element Value Uncertainty (1-sigma)   Units 
e .2602033358441478 3.0869e-08  
q 2.207970373776003 9.0669e-08 au
tp 2456797.200525374678
(2014-May-19.70052537)
4.9682e-05 TDB
node 334.296180974889 0.00011686 deg
peri 87.55151528788498 0.00011739 deg
i 1.716748233814238 5.1484e-06 deg
  Orbit Determination Parameters
   # obs. used (total)      1356  
   data-arc span      11808 days (32.33 yr)  
   first obs. used      1989-01-11  
   last obs. used      2021-05-11  
   planetary ephem.      DE441  
   SB-pert. ephem.      SB441-N16  
   condition code      0  
   norm. resid. RMS      .51477  
   source      ORB  
   producer      Otto Matic  
   solution date      2021-Jul-08 22:35:04  

Additional Information
 Jupiter MOID = 1.6007 au 
 T_jup = 3.206 
Orbit Covariance (6×6)
  e q tp node peri i
e 9.529017464712844E-16 -2.784683758975404E-15 -5.186501028023536E-14 -2.533266214481231E-15 -4.121546326627731E-14 1.464518291065924E-16
q -2.784683758975404E-15 8.220841546125065E-15 2.632403111440505E-13 7.230499835589313E-15 1.462906416926536E-13 1.382779424915602E-16
tp -5.186501028023536E-14 2.632403111440505E-13 2.468282942254163E-9 -1.581931155585547E-11 5.573509594193664E-10 -2.113925156138244E-12
node -2.533266214481231E-15 7.230499835589313E-15 -1.581931155585547E-11 1.365717147502228E-8 -1.365411239056363E-8 7.719134647142195E-11
peri -4.121546326627731E-14 1.462906416926536E-13 5.573509594193664E-10 -1.365411239056363E-8 1.377961133603995E-8 -7.750096054809402E-11
i 1.464518291065924E-16 1.382779424915602E-16 -2.113925156138244E-12 7.719134647142195E-11 -7.750096054809402E-11 2.650587818865251E-11

Ephemeris | Orbit Diagram | Orbital Elements | Mission Design | Physical Parameters | Discovery Circumstances | Close-Approach Data ]

Physical Parameter Table
Parameter Symbol Value Units Sigma Reference Notes
absolute magnitude H 14.45   n/a E2021B10  
diameter diameter 6.789 km 0.217 urn:nasa:pds:neowise_diameters_albedos::2.0[mainbelt] (http://adsabs.harvard.edu/abs/2011ApJ...741...68M)  
geometric albedo albedo 0.073   0.012 urn:nasa:pds:neowise_diameters_albedos::2.0[mainbelt] (http://adsabs.harvard.edu/abs/2011ApJ...741...68M)  

67254 (2000 EV108)          Discovered 2000-Mar-08 by Spacewatch at Kitt Peak
Reference: 20030910/Numbers.arcLast Updated: 2004-04-19

[ show close-approach data ]
Alternate Designations
 2000 EV108 = 1989 AL9 = 1998 XH66 
Ephemeris | Orbit Diagram | Orbital Elements | Mission Design | Physical Parameters | Discovery Circumstances | Close-Approach Data ]
ABOUT SSD CREDITS/AWARDS PRIVACY/COPYRIGHT GLOSSARY LINKS
FirstGov 2021-Jul-25 17:20 UT
(server date/time)  
NASA Home Page
Site Manager:   Ryan S. Park
Webmaster  Alan B. Chamberlin